Waarnemingen

Advertentie
Mijn weer
Metz-Nancy-Lorraine, Frankrijk (7093): temperatuur & dauwpunt: 23.03.2017 01:00:00 - 29.03.2017 01:00:00 (CEST)Metz-Nancy-Lorraine, Frankrijk (7093): windsnelheid & windstoten: 23.03.2017 01:00:00 - 29.03.2017 01:00:00 (CEST)Metz-Nancy-Lorraine, Frankrijk (7093): windrichting: 23.03.2017 01:00:00 - 29.03.2017 01:00:00 (CEST)Metz-Nancy-Lorraine, Frankrijk (7093): luchtdruk: 23.03.2017 01:00:00 - 29.03.2017 01:00:00 (CEST)Metz-Nancy-Lorraine, Frankrijk (7093): zicht: 23.03.2017 01:00:00 - 29.03.2017 01:00:00 (CEST)Metz-Nancy-Lorraine, Frankrijk (7093): Zonneschijnduur: 23.03.2017 01:00:00 - 29.03.2017 01:00:00 (CEST)Metz-Nancy-Lorraine, Frankrijk (7093): neerslag: 23.03.2017 01:00:00 - 29.03.2017 01:00:00 (CEST)
Datum & Tijd tt [°C] td [°C] ff [km/u] ff [kn] fx [km/u] fx [kn] dd ppp [hPa] vv [km] sd [min] rr [mm]
29.03.2017 01:00:00 9,2 5,9 16 9 20 11 WZW 1027,1 51 0 0,0
29.03.2017 00:00:00 8,6 5,3 15 8 18 10 ZW 1026,9 60 0 0,0
28.03.2017 23:00:00 11,0 6,1 9 5 15 8 WZW 1026,3 60 0 0,0
28.03.2017 22:00:00 12,0 6,3 8 5 29 15 WNW 1025,8 44 0 0,0
28.03.2017 21:00:00 14,5 6,3 12 6 23 12 W 1024,9 34 0 0,0
28.03.2017 20:00:00 15,5 6,5 15 8 31 17 W 1024,1 42 36 0,0
28.03.2017 19:00:00 17,9 7,3 21 12 34 19 W 1023,1 30 60 0,0
28.03.2017 18:00:00 19,1 6,9 21 11 34 18 W 1022,6 30 60 0,0
28.03.2017 17:00:00 20,5 6,8 16 9 29 16 W 1022,3 17 22 0,0
28.03.2017 16:00:00 18,8 7,2 10 5 21 11 ZW 1022,5 59 17 0,0
28.03.2017 15:00:00 19,7 7,7 16 9 25 13 ZZW 1022,4 15 60 0,0
28.03.2017 14:00:00 18,8 7,6 14 8 25 14 ZZW 1023,0 38 60 0,0
28.03.2017 13:00:00 17,4 8,0 11 6 23 13 ZZW 1023,5 19 60 0,0
28.03.2017 12:00:00 16,0 7,2 14 7 24 13 ZW 1023,7 34 60 0,0
28.03.2017 11:00:00 14,1 6,9 14 8 24 13 ZZW 1023,4 20 60 0,0
28.03.2017 10:00:00 12,5 6,5 12 6 20 11 ZZW 1023,4 28 60 0,0
28.03.2017 09:00:00 10,3 6,1 16 8 23 12 ZZO 1023,3 19 60 0,0
28.03.2017 08:00:00 7,8 4,9 17 9 22 12 Z 1023,3 16 16 0,0
28.03.2017 07:00:00 7,4 4,7 17 9 23 12 ZZO 1022,9 20 0 0,0
28.03.2017 06:00:00 7,8 4,4 19 10 24 13 ZZO 1022,6 24 0 0,0
28.03.2017 05:00:00 7,9 4,1 19 10 24 13 Z 1022,5 28 0 0,0
28.03.2017 04:00:00 7,9 3,4 20 11 22 12 ZZO 1022,5 31 0 0,0
28.03.2017 03:00:00 8,1 3,2 18 10 20 11 ZZO 1022,5 33 0 0,0
28.03.2017 02:00:00 8,9 3,3 17 9 19 10 ZZO 1022,5 29 0 0,0
28.03.2017 01:00:00 8,6 2,6 17 9 20 11 ZO 1022,2 28 0 0,0
28.03.2017 00:00:00 8,9 2,9 16 9 19 11 ZO 1022,0 29 0 0,0
27.03.2017 23:00:00 9,4 2,9 18 10 21 11 OZO 1021,9 34 0 0,0
27.03.2017 22:00:00 11,1 3,4 18 10 21 11 OZO 1021,5 37 0 0,0
27.03.2017 21:00:00 11,5 3,8 17 9 20 11 OZO 1021,2 39 0 0,0
27.03.2017 20:00:00 14,2 3,9 15 8 18 10 OZO 1020,4 44 35 0,0
27.03.2017 19:00:00 16,9 5,5 10 5 21 11 OZO 1019,9 48 60 0,0
27.03.2017 18:00:00 18,0 4,2 11 6 19 11 ZO 1019,8 39 60 0,0
27.03.2017 17:00:00 17,6 3,5 13 7 27 15 Z 1020,2 34 60 0,0
27.03.2017 16:00:00 17,2 3,8 15 8 28 15 ZZO 1020,6 24 60 0,0
27.03.2017 15:00:00 16,4 2,4 9 5 29 16 ZO 1021,1 39 60 0,0
27.03.2017 14:00:00 15,4 1,1 15 8 28 15 OZO 1021,8 34 - -
27.03.2017 13:00:00 13,7 1,0 15 8 27 15 O 1022,2 35 60 0,0
27.03.2017 12:00:00 12,6 0,7 17 9 26 14 O 1022,6 38 60 0,0
27.03.2017 11:00:00 10,6 -0,3 16 8 31 17 O 1022,6 28 60 0,0
27.03.2017 10:00:00 8,7 0,4 21 12 31 17 O 1022,8 19 60 0,0
27.03.2017 09:00:00 7,1 1,0 13 7 26 14 ONO 1023,2 26 60 0,0
27.03.2017 08:00:00 4,8 0,7 18 10 24 13 O 1023,2 24 14 0,0
27.03.2017 07:00:00 4,8 0,6 20 11 28 15 O 1022,7 26 0 0,0
27.03.2017 06:00:00 5,1 1,2 21 12 27 15 O 1022,3 24 0 0,0
27.03.2017 05:00:00 5,5 1,8 20 11 25 14 O 1022,1 23 0 0,0
27.03.2017 04:00:00 5,5 1,2 14 7 22 12 O 1022,4 25 0 0,0
27.03.2017 03:00:00 6,6 1,1 8 4 16 9 O 1022,3 28 0 0,0
27.03.2017 02:00:00 6,8 1,7 15 8 18 10 O 1022,6 28 0 0,0
27.03.2017 01:00:00 7,8 1,4 15 8 24 13 O 1022,5 34 0 0,0
27.03.2017 00:00:00 9,2 1,4 18 10 29 16 O 1022,6 35 0 0,0
26.03.2017 23:00:00 8,9 1,5 14 8 23 13 O 1022,6 38 0 0,0
26.03.2017 22:00:00 9,0 1,6 16 9 20 11 O 1022,5 42 0 0,0
26.03.2017 21:00:00 9,8 2,4 15 8 25 13 ONO 1022,0 39 0 0,0
26.03.2017 20:00:00 11,5 3,0 12 7 19 10 O 1021,2 41 33 0,0
26.03.2017 19:00:00 15,2 3,3 12 7 22 12 OZO 1020,6 31 60 0,0
26.03.2017 18:00:00 16,2 2,6 13 7 19 11 O 1020,3 24 60 0,0
26.03.2017 17:00:00 16,4 3,1 8 4 20 11 OZO 1020,2 28 60 0,0
26.03.2017 16:00:00 16,2 1,9 12 6 21 11 O 1020,6 26 60 0,0
26.03.2017 15:00:00 15,3 2,1 8 4 21 12 O 1021,2 18 60 0,0
26.03.2017 14:00:00 14,3 2,2 11 6 26 14 O 1021,8 30 60 0,0
26.03.2017 13:00:00 13,2 2,4 14 8 27 15 O 1022,2 20 60 0,0
26.03.2017 12:00:00 11,6 2,1 19 10 39 21 O 1022,3 20 60 0,0
26.03.2017 11:00:00 10,3 1,4 17 9 32 17 O 1022,2 30 60 0,0
26.03.2017 10:00:00 8,8 0,7 24 13 36 20 O 1022,6 20 60 0,0
26.03.2017 09:00:00 7,1 0,3 26 14 38 20 O 1022,5 35 56 0,0
26.03.2017 08:00:00 3,9 -0,5 21 11 28 15 ONO 1022,3 28 0 0,0
26.03.2017 07:00:00 3,8 -1,0 19 10 27 15 O 1021,8 29 0 0,0
26.03.2017 06:00:00 3,4 -0,8 18 10 24 13 ONO 1021,7 30 0 0,0
26.03.2017 05:00:00 4,0 -0,6 18 10 24 13 NO 1021,2 30 0 0,0
26.03.2017 04:00:00 3,7 -0,7 10 6 21 12 ONO 1021,1 33 0 0,0
26.03.2017 03:00:00 6,0 -0,5 19 10 28 15 ONO 1020,9 35 0 0,0
26.03.2017 02:00:00 7,3 -0,7 4 2 13 7 N 1020,7 36 0 0,0
26.03.2017 01:00:00 7,3 0,0 10 5 29 16 NO 1020,6 33 0 0,0
26.03.2017 00:00:00 7,5 -0,2 18 10 26 14 ONO 1020,8 39 0 0,0
25.03.2017 23:00:00 9,3 -0,6 20 11 42 23 ONO 1020,3 47 0 0,0
25.03.2017 22:00:00 11,0 -1,4 29 15 42 23 ONO 1019,9 53 0 0,0
25.03.2017 21:00:00 10,6 -0,9 26 14 34 18 ONO 1019,6 49 0 0,0
25.03.2017 20:00:00 12,2 -0,7 21 11 38 20 ONO 1019,2 49 32 0,0
25.03.2017 19:00:00 15,1 -1,1 25 14 51 28 ONO 1018,8 19 60 0,0
25.03.2017 18:00:00 16,3 -0,4 35 19 56 31 ONO 1018,8 12 60 0,0
25.03.2017 17:00:00 16,4 1,3 34 18 56 30 ONO 1019,5 10 60 0,0
25.03.2017 16:00:00 16,5 2,5 35 19 56 30 ONO 1019,9 10 60 0,0
25.03.2017 15:00:00 15,9 2,3 38 20 57 31 ONO 1020,6 10 60 0,0
25.03.2017 14:00:00 15,1 3,2 34 18 50 27 ONO 1021,3 10 60 0,0
25.03.2017 13:00:00 13,1 4,0 34 18 56 30 ONO 1022,1 9 60 0,0
25.03.2017 12:00:00 11,1 3,9 32 17 54 29 ONO 1023,2 9 60 0,0
25.03.2017 11:00:00 9,2 3,6 35 19 54 29 ONO 1024,2 8 60 0,0
25.03.2017 10:00:00 8,0 3,3 32 17 54 29 ONO 1024,8 7 60 0,0
25.03.2017 09:00:00 6,5 3,6 25 14 38 21 NO 1025,3 6 52 0,0
25.03.2017 08:00:00 3,9 2,3 23 13 33 18 NO 1025,9 5 0 0,0
25.03.2017 07:00:00 4,7 3,0 26 14 35 19 NO 1025,6 5 0 0,0
25.03.2017 06:00:00 4,8 2,8 17 9 29 16 ONO 1025,7 6 0 0,0
25.03.2017 05:00:00 5,2 3,0 17 9 30 16 NO 1025,9 6 0 0,0
25.03.2017 04:00:00 6,6 3,6 21 12 41 22 ONO 1026,3 8 0 0,0
25.03.2017 03:00:00 7,0 4,1 24 13 41 22 NO 1026,6 9 0 0,0
25.03.2017 02:00:00 7,5 4,3 26 14 43 23 NO 1026,5 11 0 0,0
25.03.2017 01:00:00 8,0 4,4 24 13 40 22 ONO 1026,4 12 0 0,0
25.03.2017 00:00:00 7,0 4,3 18 10 26 14 ONO 1027,1 13 0 0,0
24.03.2017 23:00:00 6,5 4,0 14 8 20 11 ONO 1027,7 11 0 0,0
24.03.2017 22:00:00 7,0 4,3 14 8 23 13 NO 1027,1 12 0 0,0
24.03.2017 21:00:00 8,0 4,6 17 9 26 14 ONO 1026,4 12 0 0,0
24.03.2017 20:00:00 8,8 5,2 14 7 31 17 ONO 1026,0 11 0 0,0
24.03.2017 19:00:00 9,9 5,3 16 9 29 16 ONO 1025,5 11 0 0,0
24.03.2017 18:00:00 10,6 6,0 19 10 36 19 ONO 1024,9 11 0 0,0
24.03.2017 17:00:00 10,9 5,8 23 12 37 20 ONO 1024,9 10 0 0,0
24.03.2017 16:00:00 11,0 6,1 25 13 39 21 ONO 1024,8 8 0 0,0
24.03.2017 15:00:00 10,9 6,4 25 14 36 19 ONO 1024,7 9 0 0,0
24.03.2017 14:00:00 10,4 6,0 26 14 40 21 NO 1024,9 9 0 0,0
24.03.2017 13:00:00 9,9 6,2 21 11 34 19 NO 1024,8 9 0 0,0
24.03.2017 12:00:00 9,1 6,2 22 12 37 20 ONO 1024,9 9 0 0,0
24.03.2017 11:00:00 8,7 6,3 18 10 34 18 ONO 1024,3 9 0 0,0
24.03.2017 10:00:00 8,3 6,4 16 9 31 17 ONO 1023,4 8 0 0,0
24.03.2017 09:00:00 7,7 6,2 19 10 37 20 O 1022,8 8 0 0,0
24.03.2017 08:00:00 7,6 6,1 16 9 31 17 ONO 1021,3 9 0 0,0
24.03.2017 07:00:00 7,5 6,1 16 8 27 15 ONO 1020,8 10 0 0,0
24.03.2017 06:00:00 6,8 5,7 7 4 22 12 ONO 1021,0 7 0 0,0
24.03.2017 05:00:00 7,0 6,1 16 8 23 13 ONO 1020,4 8 0 0,0
24.03.2017 04:00:00 6,4 5,8 7 4 13 7 NO 1020,7 8 0 0,0
24.03.2017 03:00:00 7,8 5,9 2 1 17 9 N 1020,7 11 0 0,0
24.03.2017 02:00:00 8,2 6,5 9 5 35 19 NNO 1019,2 11 0 0,0
24.03.2017 01:00:00 8,5 7,3 19 10 26 14 NO 1018,5 10 0 0,0
24.03.2017 00:00:00 9,9 7,7 12 6 16 8 NW 1018,5 11 0 0,4
23.03.2017 23:00:00 11,0 6,7 12 7 41 22 OZO 1017,0 19 0 0,0
23.03.2017 22:00:00 11,2 6,5 26 14 36 20 ONO 1014,2 17 0 0,0
23.03.2017 21:00:00 11,1 6,4 21 11 29 15 ONO 1013,9 19 0 0,0
23.03.2017 20:00:00 12,4 7,1 19 10 27 15 ONO 1013,5 21 17 0,0
23.03.2017 19:00:00 14,1 7,4 22 12 35 19 NO 1012,6 24 0 0,0
23.03.2017 18:00:00 15,6 6,0 24 13 39 21 ONO 1012,1 42 49 0,0
23.03.2017 17:00:00 15,6 5,8 16 8 31 17 ONO 1012,6 32 11 0,0
23.03.2017 16:00:00 15,1 5,0 12 7 26 14 O 1012,7 34 5 0,0
23.03.2017 15:00:00 14,0 6,6 19 10 26 14 O 1013,0 20 16 0,0
23.03.2017 14:00:00 12,9 6,7 21 12 34 18 O 1013,3 33 12 0,0
23.03.2017 13:00:00 12,8 6,6 25 13 36 19 O 1013,0 9 48 0,0
23.03.2017 12:00:00 11,3 6,8 19 10 27 15 O 1013,6 8 60 0,0
23.03.2017 11:00:00 9,0 6,4 18 10 33 18 O 1013,5 7 44 0,0
23.03.2017 10:00:00 6,9 5,5 24 13 32 17 O 1013,3 4,4 45 0,0
23.03.2017 09:00:00 5,3 4,6 16 9 22 12 O 1013,7 4,5 48 0,0
23.03.2017 08:00:00 3,4 3,0 13 7 27 15 O 1013,6 3,3 0 0,0
23.03.2017 07:00:00 3,7 3,3 19 11 27 15 O 1012,7 3,7 0 0,0
23.03.2017 06:00:00 3,4 3,0 16 9 22 12 O 1012,6 3,7 0 0,0
23.03.2017 05:00:00 3,5 2,9 15 8 19 10 O 1012,5 4,2 0 0,0
23.03.2017 04:00:00 4,3 3,4 13 7 24 13 O 1012,9 5 0 0,0
23.03.2017 03:00:00 4,1 3,4 10 6 18 10 O 1012,9 5 0 0,0
23.03.2017 02:00:00 4,1 3,2 9 5 23 12 O 1013,1 7 0 0,0
23.03.2017 01:00:00 - - - - - - - - - - -

tt = temperatuur
td = dauwpunt
ff = windsnelheid
fx = windstoten
dd = windrichting
ppp = luchtdruk
vv = zicht
sd = Zonneschijnduur
rr = neerslag

Weerstations in de omgeving